Location: 81360 Arifat, France
(43.7204°N, 2.3408°E)
Time: 03:08:02
(UTC+01:00)

ACS3 Solar Sail - Pass Details

Date: 20 October 2025
Orbit: 909 x 993 km, 97.3° (Epoch: 13 November)

Event Time Altitude Azimuth Distance (km) Brightness Sun altitude
Rises 06:42:33 0° 2° (N) 3,552 4.8 -16.7°
Reaches altitude 10° 06:45:15 10° 352° (N) 2,610 4.0 -16.2°
Maximum altitude 06:50:09 29° 294° (WNW) 1,621 2.5 -15.3°
Enters shadow 06:53:02 19° 252° (WSW) 2,027 2.9 -14.8°
